Probability
0 0 0 0 0 0 0 0 0 0 0 0 0 1 3 4 4 3 2 2 3 4 7 9 9 9 7 5 3 2 2 1 0 0 0 0 0 0 0 0 0 0 0 0
0 0 0 0 0 0 0 0 0 0 0 0 0 0 1 2 3 3 2 3 3 4 5 8 9 9 7 6 3 1 1 0 0 0 0 0 0 0 0 0 0 0 0 0
0 0 0 0 0 0 0 0 0 0 0 0 0 0 0 1 2 2 2 2 3 4 5 7 7 6 6 5 3 1 0 0 0 0 0 0 0 0 0 0 0 0 0 0
0 0 0 0 0 0 0 0 0 0 0 0 0 0 0 0 1 1 1 0 1 2 4 5 5 4 4 4 2 1 0 0 0 0 0 0 0 0 0 0 0 0 0 0
0 0 0 0 0 0 0 0 0 0 0 0 0 0 0 0 0 0 0 0 0 2 3 4 3 3 3 3 1 0 0 0 0 0 0 0 0 0 0 0 0 0 0 0
0 0 0 0 0 0 0 0 0 0 0 0 0 0 0 0 0 0 0 0 1 2 3 3 3 4 4 3 1 0 0 0 0 0 0 0 0 0 0 0 0 0 0 0
0 0 0 0 0 0 0 0 0 0 0 0 0 0 0 0 0 0 0 1 2 3 3 3 3 4 4 3 1 0 0 0 0 1 1 0 0 0 0 0 0 0 0 0
0 0 0 0 0 0 0 0 0 0 0 0 0 0 0 0 0 0 0 1 1 2 2 2 1 2 3 3 1 1 0 0 2 3 2 1 1 0 0 0 0 0 0 0
0 0 0 0 0 0 0 0 0 0 0 0 0 0 0 0 0 0 0 0 1 1 1 1 0 1 2 3 2 2 1 2 4 5 4 3 1 0 0 0 0 0 0 0
0 0 0 0 0 0 0 0 0 0 0 0 0 0 0 0 0 0 0 1 2 2 1 0 0 0 1 2 2 2 2 4 6 7 6 4 1 0 0 0 0 0 0 0
0 0 0 0 0 0 0 0 0 0 0 0 0 0 0 0 0 0 0 1 2 2 1 0 0 0 0 1 2 2 4 6 8 8 6 4 2 0 0 0 0 0 0 0
0 0 0 0 0 0 0 0 0 0 0 0 0 0 0 0 0 0 0 0 1 2 2 1 0 1 1 1 3 4 5 7 8 7 6 4 2 1 0 0 0 0 0 0
0 0 0 0 0 0 0 0 0 0 0 0 0 0 0 0 0 0 0 0 1 2 2 1 0 1 2 2 4 5 6 7 7 7 6 4 2 1 0 0 0 0 0 0
0 0 0 0 0 0 0 0 0 0 0 0 0 0 0 0 0 0 0 0 0 1 1 0 0 1 1 2 4 5 6 6 6 6 5 4 2 1 0 0 0 0 0 0
0 0 0 0 0 0 0 0 0 0 0 0 0 0 0 0 0 0 0 0 0 1 0 0 0 1 1 2 3 3 4 4 5 6 4 2 1 0 0 0 0 0 0 0
0 0 0 0 0 0 0 0 0 0 0 0 0 0 0 0 0 0 0 0 0 0 0 0 0 1 2 2 1 1 3 3 4 4 3 1 0 0 0 0 0 0 0 0
0 0 0 0 0 0 0 0 0 0 0 0 0 0 0 0 0 0 0 1 0 0 0 0 0 1 1 1 0 1 2 2 3 2 1 0 0 0 0 0 0 0 0 0
0 0 0 0 0 0 0 0 0 0 0 0 0 0 1 1 1 0 0 0 0 0 0 0 0 0 0 0 0 0 1 1 1 1 0 0 0 0 0 0 0 0 0 0
0 0 0 0 0 0 0 0 0 0 0 0 0 0 1 2 3 2 0 0 0 0 0 0 0 0 0 0 0 0 0 0 0 0 0 0 0 0 0 0 0 0 0 0
0 0 0 0 0 0 0 0 0 0 0 1 0 0 0 2 3 2 0 0 0 0 0 0 0 0 0 0 0 0 0 0 0 0 0 0 0 0 0 0 0 0 0 0
0 0 0 0 0 0 0 1 0 0 0 0 0 0 0 1 2 1 0 0 0 0 0 0 0 0 0 0 0 0 0 0 0 0 0 0 0 0 0 0 0 0 0 0
0 0 0 0 0 0 1 2 1 0 0 0 0 0 0 1 2 2 1 0 0 0 0 0 0 0 0 0 0 0 0 0 0 0 0 0 0 0 0 0 0 0 0 0
0 0 0 0 0 0 0 1 0 0 0 0 0 0 0 1 2 2 1 0 0 0 0 0 0 0 0 0 0 0 0 0 0 0 0 0 0 0 0 0 0 0 0 0
0 0 0 0 0 0 0 0 0 0 0 0 0 0 0 0 1 1 1 0 0 0 0 0 0 0 0 0 0 0 0 0 0 0 0 0 0 0 0 0 0 0 0 0
0 0 0 1 0 0 0 0 0 0 0 0 0 0 0 0 0 0 0 0 0 0 0 0 0 0 0 0 0 0 0 0 0 0 0 0 0 0 0 0 0 0 0 0
0 0 0 1 0 0 0 0 0 0 0 0 0 0 0 0 0 0 0 0 0 0 0 0 0 0 0 0 0 0 0 0 0 0 0 0 0 0 0 0 0 0 0 0
Wind_Speed
3 0 7 12 10 11 6 3 2 3 3 3 3 2 3 6 6 5 5 5 5 5 5 6 8 8 8 7 8 7 6 5 5 3 3 3 2 2 2 2 4 4 4 4
4 8 17 15 12 7 3 1 0 1 2 4 2 2 3 5 6 7 7 6 6 5 5 6 7 7 7 8 8 7 7 6 5 4 3 3 3 2 2 2 2 3 4 4
8 12 11 7 4 0 1 1 2 3 3 5 2 2 2 2 3 5 7 7 8 10 10 9 9 8 9 9 9 8 7 6 6 5 3 3 3 3 2 2 1 2 3 4
7 9 6 4 3 2 0 1 3 4 4 1 1 2 5 3 3 6 9 10 10 10 11 10 10 10 10 10 8 8 7 6 6 5 5 5 3 2 2 2 2 1 2 2
6 5 4 3 2 3 3 4 4 4 4 3 3 1 7 1 3 7 9 11 12 12 12 12 12 12 11 10 9 8 8 7 6 6 6 6 4 3 2 2 1 1 1 1
6 5 3 4 3 2 6 5 5 5 5 4 2 1 6 5 7 7 9 11 11 12 12 12 11 10 9 9 9 9 8 7 6 6 6 6 6 5 3 2 1 0 1 1
6 7 5 2 2 3 4 6 5 7 6 2 3 2 9 9 7 9 11 12 11 12 12 12 11 11 10 11 11 10 10 8 7 7 6 7 7 6 5 3 2 2 1 0
2 9 6 2 3 2 1 7 6 3 2 3 3 4 10 9 5 7 10 12 12 13 13 13 14 13 13 13 12 11 10 8 8 8 7 6 7 4 4 4 4 3 3 2
4 7 5 2 1 4 2 2 6 7 2 1 4 6 9 4 2 5 8 10 13 14 14 14 14 13 12 13 12 12 11 9 9 8 7 6 6 6 5 4 3 3 3 3
6 4 5 2 4 3 3 4 5 5 4 2 4 5 6 6 5 6 8 11 12 13 14 14 13 13 12 12 11 10 11 10 9 9 7 6 6 6 6 4 4 4 4 3
3 3 3 3 1 3 1 2 4 4 5 6 4 8 9 10 9 9 11 12 13 15 15 14 12 11 11 10 10 10 10 9 8 8 7 7 6 6 6 5 5 4 4 4
2 5 1 3 4 2 3 5 6 5 3 4 4 9 7 10 10 10 10 11 13 14 14 12 11 10 10 11 11 11 10 10 9 8 7 7 7 6 6 5 5 5 5 5
2 5 2 5 7 4 1 3 5 5 4 4 5 8 5 5 7 9 10 10 10 11 10 9 10 11 12 12 11 11 11 10 9 8 8 7 7 6 6 6 5 5 5 5
4 4 6 7 8 5 4 3 3 5 4 4 7 7 4 6 8 8 9 10 9 10 11 11 11 11 11 11 11 11 10 9 9 8 8 8 8 8 7 7 6 6 6 5
4 3 3 5 5 3 4 5 4 3 6 7 7 7 8 9 8 7 6 7 8 9 11 12 12 11 10 10 9 10 9 9 9 9 8 9 8 7 7 6 6 6 6 6
3 3 0 3 4 4 5 7 6 5 3 4 3 4 5 3 2 3 5 8 9 10 12 12 11 11 11 11 11 9 9 9 9 9 9 8 7 7 7 7 6 6 6 5
2 4 2 4 5 3 5 5 3 1 3 2 4 4 2 2 3 5 6 8 9 10 10 12 12 13 12 12 11 11 10 8 9 9 8 8 8 8 8 7 6 6 6 5
5 3 3 1 3 3 8 2 2 5 5 3 1 1 2 3 2 2 3 6 7 8 10 11 11 10 9 9 9 9 8 8 9 9 8 8 8 8 7 6 7 7 5 5
4 6 3 3 2 5 5 2 1 3 3 7 4 4 4 4 6 5 2 2 5 7 8 10 11 10 9 9 9 8 8 7 8 8 8 8 8 8 7 7 8 6 5 6
4 5 4 3 3 5 5 4 4 4 2 5 6 6 6 6 4 3 6 3 1 2 3 5 6 6 7 8 8 9 8 7 8 9 8 7 7 8 8 8 8 6 6 7
2 3 2 2 3 6 4 4 3 4 4 2 1 3 4 3 2 4 5 5 3 1 1 3 4 6 7 6 8 8 7 8 9 6 6 6 6 7 7 6 6 6 6 6
5 3 2 3 2 6 4 2 2 4 2 1 0 3 4 1 2 4 5 5 5 5 4 3 3 2 2 5 7 7 8 7 5 5 5 5 5 5 5 5 5 5 5 6
4 7 6 7 6 4 2 3 2 3 2 2 2 2 4 2 3 4 6 6 6 6 4 3 3 3 2 3 5 6 5 3 3 3 4 4 4 4 4 4 5 5 5 5
3 3 4 2 2 2 2 1 2 3 2 2 3 4 5 5 4 5 5 5 7 7 6 5 5 4 2 1 2 2 1 3 3 3 3 3 3 4 4 4 4 5 5 6
5 3 4 2 2 1 1 2 3 3 4 5 5 6 6 7 6 5 5 6 5 5 5 5 5 3 2 2 1 1 1 2 2 1 2 2 3 4 4 5 5 7 7 8
3 6 8 7 8 7 6 5 5 6 5 6 8 8 7 7 7 6 5 5 5 6 6 6 6 5 4 3 3 2 1 2 2 1 2 2 3 3 4 5 7 10 12 14
Wind_Direction
288 304 258 253 231 224 242 226 252 222 188 117 144 186 191 179 180 174 177 191 187 185 188 164 156 150 138 133 134 137 141 145 133 121 118 117 126 133 133 157 153 144 136 124
325 270 255 256 259 250 226 165 273 26 127 115 135 204 214 194 187 176 175 176 187 180 168 166 156 151 148 148 148 152 154 152 146 144 147 148 142 141 145 145 148 156 151 146
231 257 276 283 275 301 10 168 187 156 93 70 78 337 255 207 184 186 179 183 190 182 176 179 171 166 163 166 168 167 167 158 154 147 120 92 73 61 61 82 136 188 172 162
252 265 291 321 334 62 320 208 127 123 108 36 44 289 277 232 210 198 190 191 194 190 182 180 173 171 176 179 174 167 167 161 157 146 135 135 136 141 166 170 189 222 202 187
265 286 312 315 284 96 155 98 80 93 111 73 15 23 288 247 229 218 203 196 195 191 183 181 179 179 182 179 173 168 165 165 161 151 146 136 135 151 157 140 143 231 280 250
264 283 258 247 263 165 138 90 54 46 65 39 309 162 279 234 217 205 201 198 194 188 185 185 183 180 181 178 173 169 167 170 165 158 153 149 151 154 145 136 137 296 322 334
323 309 296 261 323 360 91 83 24 2 16 296 291 257 255 247 221 195 190 192 188 184 184 185 185 184 184 182 178 174 171 173 172 164 161 160 160 159 161 170 168 165 162 189
291 288 272 255 184 188 152 133 151 193 219 288 307 261 264 271 231 193 182 180 183 186 188 190 191 188 185 184 181 177 177 174 172 168 168 165 161 155 159 164 166 173 184 196
200 261 277 272 223 146 146 161 161 132 125 111 276 282 299 289 208 184 178 176 186 188 190 193 193 190 186 183 183 181 176 173 175 174 170 171 169 164 171 176 172 176 187 188
173 244 289 323 42 29 154 152 96 110 145 196 272 268 248 254 223 204 193 190 192 189 191 194 192 190 188 184 180 174 172 175 176 174 176 176 176 175 176 174 183 191 200 196
172 175 306 19 178 222 133 103 113 124 153 155 216 255 226 215 210 203 204 198 193 190 192 193 191 187 180 173 170 170 170 169 173 175 174 168 177 180 177 182 194 196 201 202
178 126 223 269 269 238 179 179 148 147 211 178 186 259 251 208 209 201 209 206 195 193 191 187 181 173 170 170 170 172 173 175 179 175 172 176 180 179 181 193 202 199 204 211
115 105 68 337 330 326 272 212 164 142 138 177 184 255 266 219 218 207 206 205 196 191 184 175 170 170 173 174 173 175 178 180 177 171 172 177 182 184 193 202 205 204 206 215
121 129 167 198 227 239 257 263 194 142 167 215 222 236 256 230 224 217 206 198 188 181 173 170 173 175 175 175 175 176 182 180 174 172 176 184 192 194 200 203 204 208 211 216
111 157 219 231 237 218 245 270 258 210 201 196 232 227 235 223 213 204 189 175 164 167 169 173 176 176 175 175 177 179 182 180 173 172 182 194 197 196 198 201 208 213 216 221
103 152 300 299 283 281 278 278 282 286 255 231 235 253 261 216 165 165 163 160 164 171 177 178 175 174 178 180 181 181 183 180 171 176 189 192 190 193 199 205 210 214 220 225
144 137 122 278 300 351 293 263 245 306 345 159 178 235 306 67 156 186 183 174 177 178 177 178 181 182 183 183 180 184 184 175 173 182 188 188 190 197 205 207 207 214 219 219
141 127 140 254 13 258 250 284 111 99 37 17 136 227 151 153 207 172 165 173 186 183 180 185 187 188 188 183 181 179 171 171 178 186 193 194 193 202 207 205 211 217 215 217
142 140 136 149 207 266 287 328 20 113 31 355 15 24 12 43 44 17 342 171 180 185 187 190 191 186 182 182 179 165 169 173 181 194 200 200 197 202 204 210 218 218 215 224
55 97 122 147 178 231 257 308 322 102 54 345 14 22 8 48 63 299 309 318 81 139 176 187 180 166 174 185 167 163 174 178 196 203 204 202 198 202 208 215 218 217 216 226
23 41 109 162 214 255 274 305 23 118 218 258 34 55 43 61 187 277 323 348 1 27 118 147 150 166 186 174 158 169 177 198 208 200 197 200 203 207 212 216 220 221 226 235
171 156 170 146 197 253 296 356 137 200 207 208 122 91 90 83 15 17 16 13 6 17 35 81 127 158 157 152 159 173 198 210 194 184 194 206 211 215 216 218 230 230 228 239
190 185 175 181 209 245 255 197 179 144 171 217 174 132 121 90 45 38 31 21 21 34 36 58 100 96 81 128 154 182 216 186 166 180 205 216 218 222 219 216 229 237 233 237
250 142 129 163 242 250 275 87 114 144 180 175 138 117 104 96 75 57 44 31 31 34 36 44 64 70 52 78 163 196 183 152 158 192 221 226 225 239 242 237 232 235 239 243
223 155 135 162 185 131 288 222 158 126 112 93 85 90 96 94 77 67 57 44 38 38 41 51 59 59 34 36 30 20 80 133 158 209 236 247 246 248 257 257 248 245 242 238
224 173 171 193 192 169 199 206 163 128 124 114 100 82 73 82 80 67 53 43 46 43 41 43 41 39 32 36 23 360 9 114 136 244 266 260 260 265 266 273 282 265 258 260